| time (UTC) | temp F | wind direction | speed knots | gust knots | rain 1hr in | rain 24hr in | rain mn in | humidity % | barometer mb |
| 20260507214520 | 60 | 151 | 3.5 | 7.8 | 0.00 | 0.00 | 0.06 | 48 | 1009.1 |
| 20260507213515 | 61 | 160 | 3.5 | 6.1 | 0.00 | 0.00 | 0.06 | 48 | 1009.2 |
| 20260507212530 | 61 | 166 | 3.5 | 7.8 | 0.00 | 0.00 | 0.06 | 47 | 1009.4 |
| 20260507211526 | 61 | 179 | 3.5 | 5.2 | 0.00 | 0.00 | 0.06 | 48 | 1009.3 |
| 20260507210522 | 61 | 180 | 2.6 | 7.0 | 0.00 | 0.00 | 0.06 | 48 | 1009.2 |
| 20260507205517 | 60 | 158 | 2.6 | 6.1 | 0.00 | 0.00 | 0.06 | 49 | 1009.3 |
| 20260507204533 | 60 | 152 | 4.3 | 8.7 | 0.00 | 0.00 | 0.06 | 51 | 1009.3 |
| 20260507203548 | 61 | 172 | 3.5 | 9.6 | 0.00 | 0.00 | 0.06 | 47 | 1009.2 |
| 20260507202523 | 61 | 237 | 3.5 | 9.6 | 0.00 | 0.00 | 0.06 | 46 | 1009.2 |
| 20260507201519 | 60 | 200 | 2.6 | 7.8 | 0.00 | 0.00 | 0.06 | 47 | 1009.4 |
| 20260507200614 | 61 | 170 | 3.5 | 9.6 | 0.00 | 0.00 | 0.06 | 46 | 1009.3 |
| 20260507195529 | 60 | 166 | 3.5 | 6.1 | 0.00 | 0.00 | 0.06 | 47 | 1009.2 |
| 20260507194525 | 61 | 166 | 2.6 | 7.0 | 0.00 | 0.00 | 0.06 | 46 | 1009.3 |
| 20260507193520 | 61 | 158 | 3.5 | 7.8 | 0.00 | 0.00 | 0.06 | 48 | 1009.5 |
| 20260507192516 | 60 | 162 | 4.3 | 9.6 | 0.00 | 0.00 | 0.06 | 47 | 1009.7 |
| 20260507191531 | 61 | 164 | 3.5 | 7.8 | 0.00 | 0.00 | 0.06 | 46 | 1009.8 |
| 20260507190526 | 61 | 170 | 2.6 | 7.0 | 0.00 | 0.00 | 0.06 | 45 | 1009.9 |
| 20260507185542 | 60 | 206 | 1.7 | 3.5 | 0.00 | 0.00 | 0.06 | 44 | 1010.2 |
| 20260507184517 | 61 | 253 | 1.7 | 4.3 | 0.00 | 0.00 | 0.06 | 47 | 1010.0 |
| 20260507183532 | 60 | 200 | 1.7 | 5.2 | 0.00 | 0.00 | 0.06 | 44 | 1010.2 |
| 20260507182547 | 61 | 185 | 1.7 | 4.3 | 0.00 | 0.00 | 0.06 | 43 | 1010.5 |
| 20260507181523 | 59 | 168 | 0.9 | 3.5 | 0.00 | 0.00 | 0.06 | 42 | 1010.4 |
| 20260507180518 | 61 | 186 | 2.6 | 3.5 | 0.00 | 0.00 | 0.06 | 41 | 1010.7 |
| 20260507175534 | 60 | 237 | 1.7 | 3.5 | 0.00 | 0.00 | 0.06 | 42 | 1010.7 |
| 20260507174529 | 60 | 189 | 1.7 | 4.3 | 0.00 | 0.00 | 0.06 | 42 | 1010.7 |
| 20260507173524 | 59 | 336 | 1.7 | 4.3 | 0.00 | 0.00 | 0.06 | 41 | 1011.0 |